Simultaneous Nadir Overpasses (SNOs) Predictions

Prediction of SNOs between GOES-16 and METOP-A Satellite Orbit:

Table of predicted SNOs for the next 14.0 days since TLE Epoch: 7/31/2021
Index Date Time (GOES-16) GOES-16 Lat,Lon METOP-A Lat,Lon Distance(km) Time Diff (sec)
1 07/31/2021 13:22:05 -0.05, -75.23 0.85, -79.39 473.54 80
2 08/01/2021 12:58:44 -0.06, -75.24 -0.23, -74.41 94.04 80
3 08/03/2021 01:20:24 0.05, -75.22 -0.76, -79.05 436.03 80
4 08/04/2021 00:57:04 0.06, -75.23 0.31, -74.07 131.68 80
5 08/05/2021 13:18:35 -0.05, -75.27 0.67, -78.68 387.04 80
6 08/06/2021 12:55:15 -0.06, -75.28 -0.41, -73.69 180.83 80
7 08/08/2021 01:16:54 0.05, -75.27 -0.65, -78.32 348.59 80
8 08/09/2021 00:53:35 0.06, -75.28 0.49, -73.35 219.57 80
9 08/10/2021 13:15:05 -0.05, -75.34 0.55, -77.95 298.16 80
10 08/11/2021 12:51:45 -0.06, -75.35 -0.59, -72.98 270.42 80
11 08/13/2021 01:13:25 0.05, -75.35 -0.46, -77.61 257.78 80
12 08/14/2021 00:50:05 0.06, -75.37 0.68, -72.64 311.06 80
